Regional Weather Roundup
Issued by NWS New Orleans/Baton Rouge, LA

Home | Current Version | Previous Version | Text Only | Print | Product List | Glossary On
Versions: 1 2 3 4 5 6 7 8 9 10 11 12 13 14 15 16 17 18 19 20 21 22 23 24 25 26 27 28 29
000
ASUS44 KLIX 300711
RWRLIX
NEW ORLEANS REGIONAL WEATHER ROUNDUP
NATIONAL WEATHER SERVICE NEW ORLEANS LA
200 AM CDT SAT JUL 30 2016

NOTE: "FAIR" INDICATES FEW OR NO CLOUDS BELOW 12,000 FEET WITH NO
      SIGNIFICANT WEATHER AND/OR OBSTRUCTIONS TO VISIBILITY.
      SKY/WX - SKY CONDITION AND SIGNIFICANT WEATHER.
      TMP - AIR TEMPERATURE.     DP    - DEWPOINT TEMPERATURE.
      RH  - RELATIVE HUMIDITY.   PRES  - PRESSURE.
      HI  - HEAT INDEX.          WCI   - WIND CHILL INDEX.

*  THESE STATIONS ARE NOT NWS OR FAA STATIONS AND ARE NOT UNDER
   NWS QUALITY CONTROL.

LAZ038-040-048-061>063-065>067-069-300800-
SOUTHEAST LOUISIANA

CITY           SKY/WX    TMP DP  RH WIND       PRES   REMARKS
N.O. AUDUBON     N/A     78  78 100 MISG        N/A
N.O. INTL ARPT CLEAR     80  75  84 CALM      30.01S
N.O. LAKEFRONT CLEAR     83  76  79 W5        30.01F
N.O. DOWNTOWN*   N/A     82  76  81 CALM      30.02S
RESERVE*         N/A     76  74  93 CALM      30.02S
SLIDELL        CLEAR     76  74  93 CALM      30.01S
BATON ROUGE    CLEAR     77  73  87 S3        30.01F
BOOTHVILLE     CLEAR     84  75  74 SW8       30.01F
BELLE CHASSE   CLEAR     76  75  97 CALM      30.00F
BOGALUSA*        N/A     76  73  87 CALM      30.03F
GALLIANO*        N/A     70  70 100 CALM      30.00F
NEW ROADS*       N/A     75  74  97 CALM      30.00F
GONZALES*        N/A     76  76 100 CALM      30.01S
HAMMOND*       CLEAR     75  72  88 CALM      30.01F
HOUMA*         CLEAR     76  75  98 CALM      30.01R
PORT FOURCHON* MOSUNNY   84  77  79 SW5       30.01S

$$

MSZ070-080>082-300800-
SOUTHERN MISSISSIPPI

CITY           SKY/WX    TMP DP  RH WIND       PRES   REMARKS
MCCOMB         CLEAR     73  71  93 CALM      30.02F
GULFPORT       CLEAR     79  76  90 CALM      30.00S
BILOXI         PTCLDY    81  78  89 NW3       30.00S
PASCAGOULA     CLEAR     75  75 100 CALM      30.01S

$$

COASTAL OBSERVATIONS
LAKE AND NEARSHORE STATIONS

STATION/POSITION TIME  TEMP    WIND        PRES    WAVE
                       AIR SEA DIR/SP/G            HT/PER
                 (UTC) (F)     (DEG/KT/KT) (MB)    (FT/S)
PASCAGOULA       0600   86     220/  6/  8 1015.8
WAVELAND YACHT   0600   80 87  320/  2/  3 1016.5
GRAND ISLE       0600   85 89  220/  4/  6 1016.4
SOUTHWEST PASS   0600          200/  4/  8   N/A
NEW CANAL        0600   82 87  260/  3/  4 1015.7
SHELL BEACH      0600   82 89  170/  4/  5 1016.0

OFFSHORE STATIONS

STATION/POSITION TIME  TEMP    WIND        PRES    WAVE
                       AIR SEA DIR/SP/G            HT/PER
                 (UTC) (F)     (DEG/KT/KT) (MB)    (FT/S)
64 S DAUPHIN ISL 0600   85 88  200/ 10/ 12 1016.1

$$





USA.gov is the U.S. government's official web portal to all federal, state and local government web resources and services.